Flag Weather past 2 weeks in Bad Homburg, Hesse, Germany

Now
40 °F

Passing clouds.


Feels Like: 40 °F
Forecast: 36 / 42 °F
Wind: 2 mph from Northeast

Location: Frankfurt / M-Flughafen

Current Time: Nov 27, 2014 at 11:37:31 PM

Latest Report: Nov 27, 2014 at 11:00 PM


Visibility: 8 mi

Pressure: 29.85 "Hg

Humidity: 86%

Dew point: 36 °F

Location of Bad HomburgLocation

Historic Weather in Bad Homburg — Graph

°F

Bad Homburg temperature yesterday

Maximum temperature yesterday: 42 °F (at 9:00 PM)
Minimum temperature yesterday: 37 °F (at 3:00 AM)
Average temperature yesterday: 40 °F

Past Weeks' High & Low Weather Summary

 TemperatureHumidityPressure
High54 °F (Nov 14, 3:00 PM)100% (Nov 12, 11:00 PM)30.36 "Hg (Nov 12, 11:00 PM)
Low32 °F (Nov 25, 5:00 AM)65% (Nov 21, 3:00 PM)29.54 "Hg (Nov 16, 6:00 AM)
Average45 °F89%30.00 "Hg
* Reported Nov 12 11:00 PM — Nov 27 10:00 PM, Bad Homburg, Weather by CustomWeather, © 2014

Note: Actual official high and low records may vary slightly from our data, if they occured in-between our weather recording intervals... More about our weather records

Advertising

Bad Homburg weather history for previous 24 hours

 ConditionsComfort  
Time TempWeatherWind HumidityBarometerVisibility
10:00 PM
Nov 27
42 °FPassing clouds.3 mph83%29.85 "Hg9 mi
9:00 PM42 °FOvercast.2 mph81%29.85 "Hg10 mi
8:00 PM42 °FOvercast.2 mph82%29.85 "Hg10 mi
7:00 PM42 °FLight rain. Overcast.2 mph82%29.84 "Hg9 mi
6:00 PM43 °FLight rain. Overcast.3 mph82%29.83 "Hg9 mi
5:00 PM43 °FLight rain. Overcast.2 mph80%29.83 "Hg9 mi
4:00 PM43 °FLight rain. Overcast.3 mph76%29.83 "Hg12 mi
3:00 PM44 °FOvercast.3 mph77%29.83 "Hg12 mi
2:00 PM43 °FOvercast.5 mph78%29.83 "Hg12 mi
1:00 PM43 °FOvercast.3 mph76%29.85 "Hg10 mi
12:00 PM43 °FOvercast.3 mph77%29.86 "Hg10 mi
11:00 AM42 °FOvercast.3 mph79%29.88 "Hg8 mi
9:00 AM40 °FOvercast.3 mph81%29.89 "Hg7 mi
8:00 AM40 °FOvercast.3 mph83%29.88 "Hg7 mi
7:00 AM40 °FOvercast.3 mph83%29.89 "Hg7 mi
6:00 AM40 °FOvercast.3 mph82%29.90 "Hg9 mi
5:00 AM40 °FOvercast.2 mph81%29.90 "Hg8 mi
3:00 AM41 °FOvercast.2 mph80%29.93 "Hg11 mi
2:00 AM41 °FOvercast.2 mph80%29.95 "Hg11 mi
1:00 AM41 °FOvercast.3 mph78%29.96 "Hg11 mi
12:00 AM41 °FOvercast.2 mph79%29.98 "Hg11 mi
11:00 PM
Nov 26
42 °FOvercast.3 mph80%29.98 "Hg11 mi
Weather by CustomWeather, © 2014

See weather overviewHow to use our weather pages